CZ-4 DEB, 26207

Orbit data source: Space-Track

CZ-4 DEB, 26207 is space debris in SSO originally from a launch on Thu, 14 Oct 1999 UTC launched from the Taiyaun Space Center, China (TSC). Debris objects in space refer to the collection of defunct objects orbiting the Earth. Examples of debris include non-operational satellites, rocket bodies, and fragments generated from explosions, collisions, or faulty payload assembly.

Loading next visibility...
Identifier
26207, 1999-057CV
Orbit
SSO
Country
Flag of CNCN / PRC
Related business
Manufacturer
Unknown
Mission
Spacecraft
Bus & Motor
Unknown
Mass
Unknown
Launch date (UTC)
1999-10-14 (27 years ago)
Launch vehicle
Unknown
Launch site
Taiyaun Space Center, China (TSC)
Object type
Payload
Rocket body
Debris
Shape & HBR
Unknown shape, 0.1 m
Radar Cross Section
Medium (>0.1 m² and <1 m²)

Expand to show TLE details & history
Last TLE update: 1 day ago

TLE from 1 day ago
0 CZ-4 DEB
1 26207U 99057CV  26171.28661589  .00010352  00000-0  10851-2 0  9997
2 26207  98.3952 289.0590 0055517  42.2270  16.1816 14.88619085384141
Epoch: 2026-06-20T06:52Z
TLE epoch observation values (Epoch: 2026-06-20T06:52:43.612Z)
Latitude
57.6983°
Longitude
-96.05035°
Altitude
574.747 km
Speed
7.599 km/s
True Right ascension
18h 22m 32s
True Declination
57° 32' 19"
Sunlit
Object was in daylight at epoch
Visualization orbit readout
Latitude
Unknown
Longitude
Unknown
Altitude
Unknown
Speed
Unknown
Apparent Right ascension
Unknown
Apparent Declination
Unknown
Sunlit
N/A
Visualization observer readout
Local Sidereal Time
21:30:43
Azimuth
Unknown
Elevation
Unknown
Doppler factor
Unknown
Orbital elements
Apogee altitude
638.038 km
Perigee altitude
560.565 km
Semi-major axis
6,977.438 km
Eccentricity
0.00555
Inclination
98.3952°
RAAN
289.059°
Arg. of periapsis
42.227°
True anomaly
16.36008°
Mean anomaly
16.1816°
Eccentric anomaly
16.27072°
Mean motion
3.72391 °/min
Orbital period
96.67 mins
BSTAR
0.0010851
Loading maneuver chart data...
Computing Atmospheric mass density...

Documentation

Showing up to 5 results
|